ATLAS 5 CENTAUR DEB, 44664

Orbit data source: Space-Track

ATLAS 5 CENTAUR DEB, 44664 is space debris in HEO originally from a launch on Wed, 17 Oct 2018 UTC launched from the Air Force Eastern Test Range (AFETR). Debris objects in space refer to the collection of defunct objects orbiting the Earth. Examples of debris include non-operational satellites, rocket bodies, and fragments generated from explosions, collisions, or faulty payload assembly.

Loading next visibility...
ATLAS 5 CENTAUR DEB details
Identifier
44664, 2018-079AA
Orbit
HEO
Last TLE update6 months ago
Origin
Flag of USULA (US)
ManufacturerULA Decatur
MissionSpacecraft
Bus & MotorUnknown
MassUnknown
Launch date (UTC)
2018-10-17 (6 years ago)
Launch vehicleUnknown
Launch site
Air Force Eastern Test Range (AFETR)
Object type
Payload
Rocket body
Debris
Shape & HBRUnknown
Radar Cross SectionRCS unknown

Expand to show TLE details & history

TLE from 6 months ago
0 ATLAS 5 CENTAUR DEB
1 44664U 18079AA  24190.17350872 -.00000110  00000-0  00000-0 0  9991
2 44664  10.2312 125.1662 5129895 148.4729 256.1913  1.69334433 17227
Epoch: 2024-07-08T04:09Z
Definitive object data (Epoch: 2024-07-08T04:09:51.153Z)
Latitude0.00001°
Longitude135.95587°
Altitude32,616.813 km
Speed2.653 km/s
True Right ascension08h 20m 07s
True Declination0° 00' 00"
Sunlit
Object was in daylight at TLE epoch
Visualization TLE readout
Latitude7.6625°
Longitude164.4819°
Altitude27,305.257 km
Speed3.203 km/s
Apparent Right ascension10h 08m 20s
Apparent Declination0° 49' 57"
Sunlit
Object is in daylight
Visualization observer readout
Local Sidereal Time10:48:36
Azimuth195.727° SSW
Elevation49.856°
Doppler factor1
Orbital elements
Apogee altitude38,610.941 km
Perigee altitude8,103.228 km
Semi-major axis29,735.221 km
Eccentricity0.5129895
Inclination10.2312°
RAAN125.1662°
Arg. of periapsis148.4729°
True anomaly211.44796°
Mean anomaly256.1913°
Eccentric anomaly232.78442°
Mean motion0.42329 °/min
BSTARUnknown
Orbital period850.48 mins
Loading maneuver chart data...

ATLAS 5 CENTAUR DEB Visibility forecast

Observer location: undefined°, undefined

Span
Click to sort rows by Start time (UTC) header in descending order
Start Az.
Max El. time (UTC)
Max El. Az.
Max El.
End time (UTC)
End Az.
156 mins2024-12-26 11:27:15.352Z195.718° SSW2024-12-26 12:33:15.352Z182.701° SSW38.042°2024-12-26 14:03:15.352Z113.218° SE
271 mins2024-12-27 06:56:15.352Z234.008° WSW2024-12-27 09:12:15.352Z235.996° WSW17.936°2024-12-27 11:27:15.352Z248.077° W
|